Hutchinson, MN

12:01 PM CDT on June 29, 2017 (GMT -0500)
Hutchinson Municipal-Butler

Weather History for KHCD - September, 2011

Change the Weather History Date:

Monday, September 12, 2011

  Actual Average Record
Temperature  
Mean Temperature 74 °F -  
Max Temperature 88 °F 74 °F 90 °F (1976)
Min Temperature 59 °F 51 °F 32 °F (1975)
Cooling Degree Days 8    
Growing Degree Days 24 (Base 50)    
Moisture  
Dew Point 57 °F    
Average Humidity 65    
Maximum Humidity 91    
Minimum Humidity 38    
Precipitation  
Precipitation 0.00 in - - ()
Sea Level Pressure  
Sea Level Pressure 29.82 in    
Wind  
Wind Speed 6 mph (SW)    
Max Wind Speed 18 mph    
Max Gust Speed 28 mph    
Visibility 10 miles    
Events      
Averages and records for this station are not official NWS values.
T = Trace of Precipitation, MM = Missing Value Source: NWS Daily Summary

Daily Weather History Graph

Daily Weather History Graph

Search for Another Location

Airport or City:

Trip Planner

Search our weather history database for the weather conditions in past years. The results will help you decide how hot, cold, wet, or windy it might be!

Date:

Astronomy

Sep. 12, 2011 Rise Set
Actual Time 6:52 AM CDT 7:34 PM CDT
Civil Twilight 6:22 AM CDT 8:03 PM CDT
Nautical Twilight 5:47 AM CDT 8:38 PM CDT
Astronomical Twilight 5:11 AM CDT 9:15 PM CDT
Moon 7:18 PM CDT (9/12) 7:13 AM CDT (9/12)
Length of Visible Light 13h 41m
Length of Day
12h 42m
Full, 100% of the Moon is Illuminated
Sep 12
Full
Sep 20
Last Quarter
Sep 27
New
Oct 3
First Quarter
Oct 11
Full

Hourly Weather History & Observations

Time (CDT) Temp. Heat Index Dew Point Humidity Pressure Visibility Wind Dir Wind Speed Gust Speed Precip Events Conditions
12:13 AM 60.8 °F - 58.1 °F 91% 29.93 in 10.0 mi Calm Calm - N/A   Clear
12:33 AM 62.1 °F - 58.5 °F 88% 29.93 in 10.0 mi South 3.5 mph - N/A   Clear
12:53 AM 62.6 °F - 58.1 °F 85% 29.93 in 10.0 mi South 3.5 mph - N/A   Clear
1:13 AM 64.6 °F - 58.1 °F 79% 29.92 in 10.0 mi Calm Calm - N/A   Clear
1:34 AM 62.1 °F - 56.7 °F 82% 29.92 in 10.0 mi Calm Calm - N/A   Clear
1:53 AM 60.8 °F - 56.1 °F 85% 29.91 in 10.0 mi Calm Calm - N/A   Clear
2:13 AM 60.8 °F - 56.7 °F 86% 29.91 in 10.0 mi Calm Calm - N/A   Clear
2:33 AM 60.8 °F - 56.7 °F 86% 29.90 in 10.0 mi Calm Calm - N/A   Clear
2:53 AM 60.1 °F - 56.3 °F 87% 29.90 in 10.0 mi Calm Calm - N/A   Clear
3:13 AM 61.5 °F - 56.7 °F 84% 29.90 in 10.0 mi Calm Calm - N/A   Clear
3:31 AM 60.8 °F - 56.7 °F 86% 29.90 in 10.0 mi Calm Calm - N/A   Clear
3:52 AM 59.5 °F - 56.1 °F 88% 29.90 in 10.0 mi Calm Calm - N/A   Clear
4:13 AM 60.4 °F - 57.2 °F 89% 29.89 in 10.0 mi South 3.5 mph - N/A   Clear
4:33 AM 59.5 °F - 56.3 °F 89% 29.88 in 10.0 mi Calm Calm - N/A   Clear
4:53 AM 59.5 °F - 56.8 °F 91% 29.88 in 10.0 mi Calm Calm - N/A   Clear
5:13 AM 60.8 °F - 57.6 °F 89% 29.87 in 10.0 mi South 3.5 mph - N/A   Clear
5:33 AM 60.8 °F - 57.4 °F 88% 29.86 in 10.0 mi SSE 3.5 mph - N/A   Clear
5:53 AM 60.8 °F - 57.4 °F 88% 29.85 in 10.0 mi SSE 4.6 mph - N/A   Clear
6:13 AM 62.1 °F - 58.3 °F 87% 29.85 in 10.0 mi South 5.8 mph - N/A   Clear
6:33 AM 61.2 °F - 57.4 °F 87% 29.84 in 10.0 mi South 5.8 mph - N/A   Clear
6:53 AM 60.8 °F - 57.2 °F 88% 29.83 in 10.0 mi South 4.6 mph - N/A   Clear
7:13 AM 60.8 °F - 57.2 °F 88% 29.83 in 10.0 mi South 5.8 mph - N/A   Clear
7:33 AM 62.1 °F - 57.2 °F 84% 29.82 in 10.0 mi South 6.9 mph - N/A   Clear
7:53 AM 64.6 °F - 59.0 °F 82% 29.81 in 10.0 mi South 6.9 mph - N/A   Clear
8:13 AM 67.1 °F - 60.1 °F 78% 29.80 in 10.0 mi South 8.1 mph - N/A   Clear
8:34 AM 69.8 °F - 61.2 °F 74% 29.79 in 10.0 mi South 6.9 mph - N/A   Clear
8:53 AM 69.8 °F - 59.7 °F 70% 29.78 in 10.0 mi South 9.2 mph - N/A   Clear
9:13 AM 72.1 °F - 60.4 °F 67% 29.77 in 10.0 mi South 5.8 mph - N/A   Clear
9:33 AM 74.7 °F - 61.5 °F 63% 29.77 in 10.0 mi South 8.1 mph - N/A   Clear
9:53 AM 75.2 °F - 60.8 °F 61% 29.76 in 10.0 mi South 6.9 mph - N/A   Clear
10:13 AM 77.2 °F - 60.3 °F 56% 29.75 in 10.0 mi South 11.5 mph - N/A   Clear
10:33 AM 79.7 °F - 60.6 °F 52% 29.74 in 10.0 mi South 11.5 mph 19.6 mph N/A   Clear
11:13 AM 81.0 °F 81.1 °F 57.7 °F 45% 29.74 in 10.0 mi SSW 13.8 mph 20.7 mph N/A   Clear
11:53 AM 82.4 °F 82.0 °F 57.4 °F 42% 29.72 in 10.0 mi SW 13.8 mph 18.4 mph N/A   Clear
12:13 PM 82.2 °F 82.1 °F 58.1 °F 44% 29.72 in 10.0 mi WSW 13.8 mph 18.4 mph N/A   Clear
12:53 PM 82.4 °F 82.0 °F 57.2 °F 42% 29.71 in 10.0 mi SW 13.8 mph 18.4 mph N/A   Clear
1:14 PM 83.3 °F 82.6 °F 56.8 °F 40% 29.70 in 10.0 mi SW 11.5 mph 18.4 mph N/A   Clear
1:33 PM 83.5 °F 83.1 °F 58.5 °F 42% 29.71 in 10.0 mi West 15.0 mph 18.4 mph N/A   Clear
2:13 PM 85.1 °F 84.8 °F 59.4 °F 42% 29.71 in 10.0 mi West 12.7 mph - N/A   Clear
2:33 PM 86.7 °F 87.0 °F 61.5 °F 43% 29.71 in 10.0 mi West 12.7 mph - N/A   Clear
3:13 PM 87.3 °F 87.5 °F 61.7 °F 42% 29.71 in 10.0 mi West 12.7 mph 17.3 mph N/A   Clear
3:33 PM 87.3 °F 87.2 °F 60.8 °F 41% 29.71 in 10.0 mi West 13.8 mph 19.6 mph N/A   Clear
3:53 PM 87.3 °F 87.2 °F 60.8 °F 41% 29.70 in 10.0 mi West 16.1 mph 23.0 mph N/A   Clear
4:13 PM 88.2 °F 89.0 °F 62.8 °F 43% 29.71 in 10.0 mi West 13.8 mph 20.7 mph N/A   Clear
4:33 PM 86.5 °F 86.5 °F 61.0 °F 42% 29.72 in 10.0 mi West 18.4 mph 26.5 mph N/A   Clear
4:53 PM 84.4 °F 83.4 °F 56.5 °F 38% 29.73 in 10.0 mi WNW 18.4 mph 27.6 mph N/A   Clear
5:13 PM 83.1 °F 82.2 °F 55.4 °F 38% 29.74 in 10.0 mi NW 17.3 mph 27.6 mph N/A   Clear
5:34 PM 82.2 °F 81.8 °F 56.7 °F 41% 29.75 in 10.0 mi WNW 18.4 mph 27.6 mph N/A   Clear
5:53 PM 81.0 °F 80.8 °F 55.9 °F 42% 29.76 in 10.0 mi WNW 12.7 mph 26.5 mph N/A   Clear
6:13 PM 79.7 °F - 57.9 °F 47% 29.78 in 10.0 mi WNW 16.1 mph 27.6 mph N/A   Clear
6:33 PM 77.2 °F - 56.5 °F 49% 29.80 in 10.0 mi WNW 17.3 mph 26.5 mph N/A   Clear
6:53 PM 74.7 °F - 55.8 °F 52% 29.81 in 10.0 mi WNW 18.4 mph 26.5 mph N/A   Clear
7:13 PM 74.7 °F - 56.5 °F 53% 29.82 in 10.0 mi WNW 16.1 mph 21.9 mph N/A   Clear
7:33 PM 71.1 °F - 54.7 °F 56% 29.83 in 10.0 mi WNW 17.3 mph 20.7 mph N/A   Clear
7:53 PM 69.8 °F - 53.8 °F 57% 29.85 in 10.0 mi NW 16.1 mph 26.5 mph N/A   Clear
8:13 PM 69.8 °F - 53.6 °F 56% 29.86 in 10.0 mi NW 16.1 mph 25.3 mph N/A   Clear
8:33 PM 67.1 °F - 52.9 °F 60% 29.88 in 10.0 mi NW 15.0 mph 21.9 mph N/A   Clear
8:53 PM 65.7 °F - 50.9 °F 59% 29.90 in 10.0 mi NW 11.5 mph 21.9 mph N/A   Clear
9:13 PM 64.4 °F - 50.5 °F 61% 29.91 in 10.0 mi NW 12.7 mph 19.6 mph N/A   Clear
9:33 PM 63.0 °F - 49.1 °F 61% 29.92 in 10.0 mi NW 10.4 mph 18.4 mph N/A   Clear
10:13 PM 61.5 °F - 48.7 °F 63% 29.93 in 10.0 mi NW 10.4 mph 18.4 mph N/A   Clear
10:33 PM 60.8 °F - 48.7 °F 64% 29.94 in 10.0 mi NW 8.1 mph 16.1 mph N/A   Clear
10:53 PM 59.5 °F - 48.2 °F 66% 29.94 in 10.0 mi NW 8.1 mph 16.1 mph N/A   Clear
11:13 PM 59.5 °F - 47.1 °F 63% 29.95 in 10.0 mi NW 10.4 mph - N/A   Clear
11:34 PM 59.5 °F - 47.8 °F 65% 29.95 in 10.0 mi WNW 6.9 mph - N/A   Clear
11:52 PM 59.5 °F - 47.7 °F 65% 29.96 in 10.0 mi NW 5.8 mph 9.2 mph N/A   Clear